Regional Weather Roundup
Issued by NWS Bismarck, ND

Home | Current Version | Previous Version | Text Only | Print | Product List | Glossary On
Versions: 1 2 3 4 5 6 7 8 9 10 11 12 13 14 15 16 17 18 19 20 21 22 23 24 25 26 27 28 29 30 31 32 33 34 35 36 37 38 39 40 41 42 43 44 45 46 47 48 49 50
000
ASUS43 KBIS 241502
RWRBIS

NWR BROADCAST TEXT
NATIONAL WEATHER SERVICE BISMARCK ND
900 AM CST TUE JAN 24 2017

NOTE: "FAIR" INDICATES FEW OR NO CLOUDS BELOW 12,000 FEET WITH NO
SIGNIFICANT WEATHER AND/OR OBSTRUCTIONS TO VISIBILITY.


CITY           SKY/WX    TMP DP  RH WIND       PRES   REMARKS
WILLISTON      CLOUDY    20  14  77 NW6       29.89R WCI  12
MINOT          CLOUDY    23  16  74 W15       29.85S WCI  10
MINOT AFB      NOT AVBL
BISMARCK       CLOUDY    25  19  78 N6        29.88R WCI  18
DICKINSON      CLOUDY    20  16  84 NW13      29.82R WCI   7
GARRISON         N/A     21  17  84 NW8       29.85S WCI  11
HETTINGER ARPT CLOUDY    20  18  92 N8        29.83F WCI  10
JAMESTOWN      CLOUDY    22  19  89 NW5       29.86R WCI  16
CARRINGTON     CLOUDY    21  19  93 W9        29.87S WCI  11
HAZEN          CLOUDY   N/A N/A N/A NW10      29.90R
MANDAN         CLOUDY    23  18  80 N7        29.87R WCI  15
STANLEY        CLOUDY    18  19 100 NW7       29.86S WCI   8
WATFORD CITY   CLOUDY    19  16  86 W5        29.88R WCI  13
$$

CITY           SKY/WX    TMP DP  RH WIND       PRES   REMARKS
GRAND FORKS    CLOUDY    26  20  77 SW7       29.87S WCI  18
GRAND FORKS AF CLOUDY    25  20  80 W6        29.87S WCI  18
DEVILS LAKE    MOCLDY    21  18  88 W12       29.85R WCI   9
FARGO          CLOUDY    28  23  81 NW8       29.90R WCI  20
GRAFTON        CLOUDY    25  23  93 W8        29.88R WCI  16
GWINNER        CLOUDY    30  28  93 N9        29.88R
$$

CITY           SKY/WX    TMP DP  RH WIND       PRES   REMARKS
ABERDEEN       LGT SNOW  27  24  89 NE13      29.84F FOG     WCI  16
MOBRIDGE       CLOUDY    26  20  77 N13       29.82R WCI  15
BUFFALO          N/A     24  20  84 NE12      29.75R WCI  13
RAPID CITY     LGT SNOW  20  17  88 NW16      29.77R FOG     WCI   6
GLASGOW        CLOUDY    18  15  88 W10       29.89R WCI   6
SIDNEY         FLURRIES  19  16  88 NW7       29.91R WCI  10
WOLF POINT     CLOUDY    20  15  81 SW5       29.91R WCI  13
GLENDIVE       FLURRIES  19  15  84 NW5       29.90R WCI  12
MILES CITY     CLOUDY    21  17  84 NW6       29.89R WCI  13
BAKER          CLOUDY    19  16  88 NW7       29.85R WCI  10
$$

CITY           SKY/WX    TMP DP  RH WIND       PRES   REMARKS
BILLINGS       CLOUDY    20  18  92 NE9       29.85R WCI   9
GREAT FALLS    FAIR      10   6  84 SW10      29.87R WCI  -4
$$




USA.gov is the U.S. government's official web portal to all federal, state and local government web resources and services.